SJ-6D

Last updated on Wed Apr 24 2024 00:03:20 GMT+0000 (Coordinated Universal Time)

1 29506U 06046B 24114.57833920 .00003947 00000+0 34791-3 0 9996 2 29506 97.7434 140.0011 0003291 109.1474 251.0104 14.97011493953151
UTC large
Height (km)
Speed (km/s)
/
Latitude / Longitude
Inclination (degrees)
Orbital Period (minutes)
Azimuth
Elevation
Range (km)
Doppler Factor

Next 0 passes for location: London (51.5072 / 0.1276)

Sorry there are no passes over London.
SJ-6D